Location: Newark
(51.3000°N, 178.2000°W)
Time: 02:21:34
(UTC+00:00)

ISS - Pass Details

Date: 18 May 2021
Orbit: 417 x 422 km, 51.6° (Epoch: 15 June)

Event Time Altitude Azimuth Distance (km) Brightness Sun altitude
Rises 11:39:45 0° 280° (W) 2,371 0.2 -19.0°
Reaches altitude 10° 11:41:51 10° 279° (W) 1,506 -0.8 -19.0°
Maximum altitude 11:45:14 83° 192° (SSW) 430 -3.9 -19.0°
Enters shadow 11:45:48 58° 114° (ESE) 495 -3.6 -19.0°
